Regional Weather Roundup
Issued by NWS Cleveland, OH

Home | Current Version | Previous Version | Graphics & Text | Print | Product List | Glossary On
Versions: 1 2 3 4 5 6 7 8 9 10 11 12 13 14 15 16 17 18 19 20 21 22 23 24 25 26 27 28 29 30 31 32 33 34 35 36 37 38 39 40 41 42 43 44 45 46 47 48 49 50
000
ASUS41 KCLE 101310
RWRCLE
OHIO REGIONAL WEATHER ROUNDUP
NATIONAL WEATHER SERVICE CLEVELAND, OH
900 AM EDT THU JUL 10 2014

NOTE: "FAIR" INDICATES FEW OR NO CLOUDS BELOW 12,000 FEET WITH NO
SIGNIFICANT WEATHER AND/OR OBSTRUCTIONS TO VISIBILITY.

OHZ001>008-015>018-024>027-034-035-043-044-101400-
   NORTHWEST OHIO

CITY           SKY/WX    TMP DP  RH WIND       PRES   REMARKS
DEFIANCE       SUNNY     65  55  70 N8        30.13R
FINDLAY        SUNNY     67  58  72 N5        30.11R
TOLEDO EXPRESS SUNNY     64  56  75 N6        30.12R
TOLEDO EXEC    SUNNY     69  57  65 N6        30.12R
LIMA           SUNNY     66  57  72 N5        30.13R
$$

OHZ009>014-019>023-028>033-038-089-101400-
   NORTHEAST OHIO

CITY           SKY/WX    TMP DP  RH WIND       PRES   REMARKS
CLE-HOPKINS    MOSUNNY   68  59  73 E5        30.13R
CLE-LAKEFRONT  MOSUNNY   71  56  58 E5        30.11R
CUY CO. ARPT   MOSUNNY   68  59  73 SE12      30.13R
LORAIN-ELYRIA  MOSUNNY   69  62  78 CALM      30.12R
ASHTABULA      SUNNY     66  56  70 E5        30.15R
AKRON-CANTON   MOSUNNY   68  60  75 E7        30.13R
WOOSTER        SUNNY     68  62  81 E7        30.13R
MANSFIELD      MOSUNNY   67  62  84 SE5       30.13R
YOUNGSTOWN     MOSUNNY   65  58  78 E6        30.14R
$$

OHZ042-051>053-060>062-070>072-077>081-101400-
  SOUTHWEST OHIO

CITY           SKY/WX    TMP DP  RH WIND       PRES   REMARKS
CINC-COVINGTON MOSUNNY   71  59  65 NE6       30.10R
CINC-LUNKEN    MOSUNNY   69  62  78 VRB3      30.11R
HAMILTON       MOSUNNY   69  60  73 NE5       30.11R
DAYTON         MOSUNNY   68  59  73 N7        30.13R
WRIGHT-PAT AFB SUNNY     67  59  75 NE6       30.11R
DAYTON GENERAL MOSUNNY   69  60  73 NE7       30.11R
WILMINGTON     MOSUNNY   68  60  75 NE7       30.10R
$$

OHZ036-037-039>041-045>050-054>059-063>069-073>076-082>088-101400-
  CENTRAL AND SOUTHEAST OHIO

CITY           SKY/WX    TMP DP  RH WIND       PRES   REMARKS
COLUMBUS       MOSUNNY   71  62  73 CALM      30.09S
OSU AIRPORT    SUNNY     70  62  76 N6        30.11R
BOLTON FIELD   SUNNY     70  63  78 N3        30.10R
RICKENBACK AFB MOSUNNY   71  61  69 CALM      30.09R
NEWARK         MOSUNNY   68  62  81 CALM      30.10R
MARION         MOSUNNY   67  62  84 CALM      30.12R HAZE
LANCASTER      MOSUNNY   68  64  87 CALM      30.10R
ZANESVILLE     MOSUNNY   67  60  78 NE3       30.10R
NEW PHILLY     SUNNY     68  63  84 E3        30.12R
$$


USA.gov is the U.S. government's official web portal to all federal, state and local government web resources and services.